星链-1927 (STARLINK-1927 )

导读 | 星芒AI

STARLINK-1927 是 SpaceX Starlink 项目中的一颗低轨通信卫星,属于第二代 Starlink 卫星(Gen2)批次。该卫星于 2023 年发射,旨在为全球用户提供高速、低延迟的互联网服务。它运行在约 550 公里的轨道高度,采用先进推进系统和激光通信技术,以提升网络性能和卫星间通信效率。STARLINK-1927 的部署有助于扩大 Starlink 的覆盖范围,特别是在偏远和网络基础设施薄弱的地区。

基本信息
目录编号:
47181
目录名称:
STARLINK-1927
国际标识:
2020-088BM
轨道中心:
EARTH
卫星名称:
星链-1927
卫星全名:
星链-1927 (STARLINK-1927 )
卫星状态:
已陨落 最后检测时间 2024-07-18
发射日期:
2020-11-25 UTC
国别 :
美国 (US)
星等 :
--
轨道信息
数据来源 国际轨道数据
星历时间: 2024-07-18T06:53:24+0800
轨道信息已过期472天
半长轴: 6595.529km
偏心率: 0.0017124
轨道倾角: 53.053°
近地点辐角 291.884°
升交点赤经 359.320°
平近点角 164.149°
近地点: 206.099km
远地点: 228.689km
周期: 88.845分钟
每日圈数: 16.207959
详细信息
固有亮度:
5
最大亮度:
2.5
卫星平台:
Starlink V1.0
覆盖范围:
全球
运营商:
太空探索技术公司
运营商所在国:
美国
制造商(研发单位):
太空探索技术公司
制造商所在国:
美国
使用方式:
暂无
卫星简介
星链(Starlink)计划是由太空探索技术公司(SpaceX)提出的一个巨型低轨卫星互联网星座项目,计划在2019年至2024年间在太空搭建由约1.2万颗卫星组成的“星链”网络,其中1584颗将部署在地球上空550千米处的近地轨道,并从2020年开始工作。该卫星仍在工作。